[[{"header":{"parameterUnit":"m.s-1","parameterCategory":1,"la1":30.2991,"la2":30.254,"lo1":-89.0895,"lo2":-89.0444,"dy":0.0017,"dx":0.0017,"nx":28,"ny":28,"refTime":"2024-08-10T03:00:00:Z","depth":0,"parameterNumber":2,"parameterNumberName":"U-component_of_WINDS"},"data":[0,0,0,0,0,0,0,0,0,0,0,0,0,0,0,0,0,0,0,0,0,0,0,0,0,0,0,0,0,0,0,0,0,0,0,0,0,0,0,0,0,0,0,0,0,0,0,0,0,0,0,0,0,0,0,0,0,0,1.3648,1.3648,0,1.3616,1.3615,1.3615,1.3564,1.3563,1.3562,1.3561,1.3532,1.3533,1.3533,0,0,0,0,0,0,0,0,0,0,0,0,0,1.3675,1.3675,1.3648,1.3648,1.3648,1.3616,1.3615,1.3615,1.3564,1.3563,1.3562,1.3561,1.3532,1.3533,1.3533,0,0,0,0,0,0,0,0,0,0,0,0,0,1.3655,1.3675,1.3648,1.3618,1.3615,1.3616,1.3615,1.3615,1.3565,1.3563,1.3562,1.356,1.3532,1.3533,1.3533,1.3561,0,0,1.3533,1.3533,0,0,0,0,0,0,0,0,1.3656,1.3654,1.3623,1.362,1.3617,1.3592,1.3614,1.3597,1.3565,1.3584,1.3561,1.356,1.3554,1.3552,1.3549,1.356,1.3558,1.3533,1.3533,1.3533,1.3533,0,0,0,0,0,0,0,1.3658,1.3656,1.3635,1.3623,1.3619,1.3609,1.3605,1.3611,1.3577,1.3582,1.3578,1.3575,1.3552,1.3549,1.3548,1.3558,1.3533,1.3533,1.3533,1.3533,1.3598,1.36,0,0,0,0,0,0,1.3663,1.3657,1.3637,1.3634,1.3634,1.361,1.3605,1.3602,1.3577,1.3572,1.3576,1.3573,1.355,1.3548,1.3547,1.3583,1.3533,1.3533,1.3533,1.3597,1.3599,1.36,0,0,0,0,0,0,1.3664,1.3661,1.3638,1.3645,1.3641,1.3611,1.3608,1.3602,1.3599,1.3572,1.3567,1.3579,1.3548,1.3547,1.3559,1.3582,1.3533,1.3533,1.3595,1.3597,1.3599,1.3654,0,0,0,0,0,0,1.3665,1.3662,1.367,1.3645,1.3641,1.3648,1.3609,1.3602,1.3599,1.3594,1.3574,1.3569,1.3547,1.3559,1.3559,1.3581,1.3534,1.3593,1.3596,1.3599,1.365,1.3658,1.3665,0,0,0,0,0,1.3666,1.3686,1.3671,1.3669,1.365,1.3649,1.3647,1.3621,1.3601,1.3611,1.3595,1.357,1.3579,1.3561,1.3561,1.3583,1.3591,1.3595,1.3598,1.3647,1.3656,1.3665,0,0,0,0,0,0,1.3714,1.3682,1.3665,1.3677,1.3667,1.3641,1.3652,1.3631,1.3626,1.3622,1.3591,1.3587,1.3605,1.3594,1.3575,1.3613,1.3582,1.3585,1.3619,1.3627,1.3635,1.3638,1.3534,0,0,0,0,0,1.3727,1.3727,1.3699,1.3713,1.3709,1.3682,1.368,1.3661,1.365,1.3645,1.3629,1.3621,1.3623,1.3624,1.3623,1.3648,1.3647,1.3664,1.3671,1.3677,1.3682,1.3701,1.371,1.3613,1.3612,1.3612,0,0,1.3752,1.3734,1.3736,1.3723,1.3712,1.3717,1.3678,1.3683,1.3687,1.3646,1.3658,1.3647,1.3636,1.3656,1.3664,1.3648,1.3709,1.3682,1.3687,1.3688,1.3706,1.3715,1.3723,1.3615,1.3615,1.3614,0,0,1.38,1.3785,1.3798,1.3789,1.3774,1.3757,1.376,1.3739,1.373,1.3741,1.3713,1.3719,1.372,1.3715,1.3713,1.3767,1.3746,1.3768,1.3807,1.3826,1.3834,1.384,1.3865,1.3873,1.3772,1.3772,1.3772,0,1.3834,1.3837,1.3807,1.3816,1.3813,1.3777,1.3792,1.3785,1.3772,1.3773,1.3754,1.376,1.3749,1.3771,1.3785,1.3783,1.379,1.377,1.3834,1.3841,1.3847,1.387,1.3879,1.3775,1.3774,1.3774,1.3774,0,1.3882,1.3885,1.3898,1.3886,1.3885,1.3896,1.3872,1.3875,1.3858,1.3844,1.386,1.3846,1.3846,1.3849,1.3831,1.3871,1.3862,1.3839,1.3808,1.386,1.3881,1.3889,1.3779,1.3778,1.3777,1.3776,0,0,1.3958,1.3933,1.3939,1.3936,1.3919,1.3923,1.3935,1.3934,1.394,1.3933,1.3946,1.3951,1.3933,1.393,1.3912,1.3928,1.398,1.3905,1.3904,1.3923,1.403,1.4049,1.406,1.3965,1.3966,1.3967,1.4032,0,1.4006,1.4024,1.4001,1.4026,1.4032,1.4,1.4013,1.4006,1.3995,1.4001,1.3989,1.3995,1.3967,1.3966,1.3981,1.397,1.4001,1.3965,1.3982,1.3983,1.3989,1.407,1.4089,1.415,1.404,1.4041,1.4042,0,1.4063,1.4061,1.4087,1.4074,1.4076,1.4087,1.4088,1.4092,1.4087,1.4078,1.4079,1.4058,1.4075,1.4043,1.4069,1.4045,1.4051,1.4047,1.4049,1.4052,1.4017,1.4079,1.4169,1.418,1.4054,1.4053,1.4052,0,1.4122,1.4125,1.4142,1.414,1.4125,1.4135,1.4129,1.4122,1.4125,1.4126,1.4129,1.4133,1.4136,1.4141,1.4124,1.4102,1.4155,1.412,1.4152,1.4153,1.4166,1.4166,1.4262,1.4164,1.4164,1.4163,1.4163,0,1.4179,1.4198,1.4169,1.418,1.4202,1.4177,1.4201,1.4192,1.4187,1.42,1.4172,1.4185,1.416,1.4172,1.4159,1.4186,1.4186,1.4183,1.4181,1.4188,1.4189,1.4193,1.419,1.4166,1.4165,1.4165,1.4164,0,1.4248,1.4229,1.4247,1.4233,1.423,1.4248,1.4237,1.4249,1.4238,1.4254,1.4257,1.424,1.4253,1.4236,1.4247,1.4239,1.4278,1.4266,1.4279,1.4278,1.4313,1.4312,1.4418,1.4433,1.4321,1.4322,1.4323,0,1.4288,1.4301,1.429,1.4296,1.4292,1.4302,1.4306,1.4283,1.4289,1.4288,1.4302,1.4313,1.432,1.4344,1.4335,1.4345,1.4337,1.4373,1.4338,1.4348,1.4344,1.4345,1.4349,1.4381,1.4383,1.4384,1.4385,0,1.4361,1.4353,1.4358,1.4363,1.4369,1.4371,1.4372,1.4379,1.4357,1.4366,1.4379,1.4385,1.4399,1.4412,1.4421,1.4419,1.4401,1.4396,1.4405,1.4414,1.4424,1.4425,1.4304,1.4394,1.4393,1.4392,1.4392,1.4391,1.4419,1.4433,1.4428,1.4438,1.4436,1.444,1.4452,1.4444,1.4454,1.4463,1.445,1.4469,1.447,1.448,1.4481,1.4498,1.4483,1.4494,1.4498,1.4502,1.451,1.4418,1.4499,1.4499,1.4499,1.4498,1.4498,0,1.4495,1.4492,1.4501,1.4504,1.4514,1.4494,1.4496,1.4506,1.4522,1.4524,1.4533,1.4552,1.4567,1.4561,1.4575,1.4591,1.4583,1.4596,1.4596,1.4598,1.452,1.4513,1.4602,1.4602,1.4602,1.4602,1.4602,1.4602,1.4536,1.456,1.4552,1.4577,1.4574,1.4592,1.4596,1.4601,1.4603,1.4625,1.4637,1.4633,1.4634,1.4649,1.4664,1.4662,1.4671,1.4688,1.4684,1.4612,1.4602,1.4592,1.4586,1.4688,1.4689,1.476,1.4761,1.4761]},{"header":{"parameterUnit":"m.s-1","parameterCategory":1,"la1":30.2991,"la2":30.254,"lo1":-89.0895,"lo2":-89.0444,"dy":0.0017,"dx":0.0017,"nx":28,"ny":28,"refTime":"2024-08-10T03:00:00:Z","depth":0,"parameterNumber":3,"parameterNumberName":"V-component_of_WINDS"},"data":[0,0,0,0,0,0,0,0,0,0,0,0,0,0,0,0,0,0,0,0,0,0,0,0,0,0,0,0,0,0,0,0,0,0,0,0,0,0,0,0,0,0,0,0,0,0,0,0,0,0,0,0,0,0,0,0,0,0,-3.0997,-3.0993,0,-3.0601,-3.0596,-3.0592,-3.047,-3.0472,-3.0474,-3.0476,-3.0054,-3.0041,-3.0028,0,0,0,0,0,0,0,0,0,0,0,0,0,-3.163,-3.162,-3.0998,-3.0993,-3.0988,-3.0602,-3.0596,-3.0591,-3.047,-3.0473,-3.0475,-3.0477,-3.0058,-3.0043,-3.0027,0,0,0,0,0,0,0,0,0,0,0,0,0,-3.1307,-3.1616,-3.0999,-3.0882,-3.0867,-3.0603,-3.0596,-3.0589,-3.047,-3.0473,-3.0476,-3.0478,-3.0063,-3.0044,-3.0025,-2.9843,0,0,-2.9965,-2.9956,0,0,0,0,0,0,0,0,-3.1325,-3.1284,-3.0904,-3.0889,-3.0872,-3.0589,-3.0664,-3.0339,-3.0469,-3.062,-3.0476,-3.048,-3.0228,-3.0195,-3.0114,-2.9824,-2.9805,-2.9963,-2.9951,-2.9943,-2.9937,0,0,0,0,0,0,0,-3.1348,-3.13,-3.084,-3.0898,-3.0879,-3.0842,-3.08,-3.0602,-3.0411,-3.0607,-3.0597,-3.0553,-3.022,-3.0133,-3.0103,-2.9799,-2.9963,-2.9946,-2.9934,-2.9926,-2.9331,-2.9327,0,0,0,0,0,0,-3.1393,-3.1319,-3.0853,-3.0828,-3.1111,-3.0828,-3.0781,-3.0676,-3.0414,-3.0377,-3.0551,-3.0549,-3.0165,-3.0126,-3.0088,-2.9851,-2.9943,-2.9924,-2.9913,-2.9335,-2.933,-2.9325,0,0,0,0,0,0,-3.1407,-3.1352,-3.0869,-3.1071,-3.1007,-3.0815,-3.0698,-3.0667,-3.058,-3.0371,-3.0335,-3.0498,-3.0166,-3.0115,-2.9904,-2.9835,-2.9915,-2.9897,-2.9339,-2.9333,-2.9327,-2.9382,0,0,0,0,0,0,-3.1426,-3.1358,-3.1292,-3.1071,-3.0997,-3.0698,-3.0694,-3.0657,-3.0548,-3.0542,-3.0312,-3.0277,-3.0164,-2.9934,-2.9885,-2.9809,-2.9882,-2.9344,-2.9336,-2.9329,-2.9385,-2.9378,-2.9373,0,0,0,0,0,-3.1449,-3.1322,-3.129,-3.1234,-3.0911,-3.0695,-3.0651,-3.053,-3.0544,-3.0471,-3.0336,-3.0284,-2.9852,-2.9914,-2.9857,-2.9775,-2.9348,-2.9339,-2.933,-2.9388,-2.938,-2.9373,0,0,0,0,0,0,-3.1535,-3.1291,-3.1252,-3.1051,-3.0895,-3.0675,-3.0581,-3.0526,-3.0358,-3.0359,-3.021,-3.0158,-2.9956,-2.9845,-2.9918,-2.9581,-2.9597,-2.9576,-2.9661,-2.9651,-2.9645,-2.9673,-2.9866,0,0,0,0,0,-3.1532,-3.1383,-3.1175,-3.1017,-3.0941,-3.0775,-3.0676,-3.0596,-3.0426,-3.0357,-3.0207,-3.0039,-2.9864,-2.9752,-2.9581,-2.937,-2.9313,-2.9285,-2.9279,-2.9275,-2.9256,-2.9127,-2.911,-2.9296,-2.9296,-2.9296,0,0,-3.1521,-3.1369,-3.1283,-3.103,-3.09,-3.0741,-3.072,-3.0555,-3.0433,-3.033,-3.0121,-3.0005,-2.9807,-2.9594,-2.9492,-2.9494,-2.9193,-2.9263,-2.9261,-2.9244,-2.9116,-2.9099,-2.9084,-2.9289,-2.9291,-2.9291,0,0,-3.142,-3.1294,-3.1145,-3.1015,-3.082,-3.0709,-3.0674,-3.0461,-3.038,-3.017,-3.0088,-2.9938,-2.9643,-2.9503,-2.9393,-2.9236,-2.9177,-2.9184,-2.9148,-2.9025,-2.901,-2.8996,-2.8932,-2.8912,-2.9167,-2.9167,-2.9167,0,-3.143,-3.1194,-3.1074,-3.0912,-3.0799,-3.0704,-3.0547,-3.0425,-3.0182,-3.0102,-3.0111,-2.9734,-2.9595,-2.9343,-2.9305,-2.9222,-2.9169,-2.9207,-2.9023,-2.9008,-2.8993,-2.893,-2.8907,-2.9169,-2.9169,-2.9169,-2.9168,0,-3.1212,-3.1049,-3.0951,-3.0722,-3.0599,-3.0441,-3.0289,-3.0178,-3.0108,-2.9994,-2.9776,-2.9606,-2.9395,-2.933,-2.9259,-2.9065,-2.9072,-2.9054,-2.9066,-2.8979,-2.8916,-2.8892,-2.9171,-2.9171,-2.917,-2.917,0,0,-3.1153,-3.0859,-3.0824,-3.0716,-3.0492,-3.036,-3.0194,-2.9992,-2.9895,-2.9729,-2.958,-2.9332,-2.9312,-2.9187,-2.9099,-2.8992,-2.8867,-2.8984,-2.8977,-2.8962,-2.8634,-2.8644,-2.8619,-2.883,-2.8825,-2.8821,-2.8648,0,-3.1018,-3.0723,-3.0608,-3.0365,-3.0207,-3.0113,-2.9967,-2.9809,-2.9698,-2.9543,-2.9418,-2.9241,-2.9233,-2.9156,-2.9046,-2.8907,-2.8798,-2.8918,-2.8681,-2.8674,-2.8728,-2.8588,-2.8599,-2.8444,-2.8623,-2.8619,-2.8616,0,-3.0821,-3.0657,-3.0399,-3.0188,-3.0118,-2.999,-2.9791,-2.9648,-2.9464,-2.939,-2.925,-2.9168,-2.8981,-2.901,-2.8746,-2.883,-2.8726,-2.8642,-2.8633,-2.86,-2.8636,-2.8544,-2.8392,-2.8367,-2.8578,-2.8581,-2.8584,0,-3.0795,-3.0509,-3.0316,-3.0227,-2.9979,-2.9889,-2.978,-2.96,-2.9484,-2.931,-2.9231,-2.9036,-2.8927,-2.8774,-2.8638,-2.8673,-2.8383,-2.8403,-2.8309,-2.8312,-2.8247,-2.8252,-2.8069,-2.8193,-2.8193,-2.8194,-2.8194,0,-3.0652,-3.0496,-3.03,-3.0181,-3.0,-2.9867,-2.9689,-2.9573,-2.9413,-2.9263,-2.917,-2.903,-2.8862,-2.8698,-2.859,-2.8383,-2.8336,-2.8264,-2.8236,-2.8269,-2.8277,-2.8194,-2.8198,-2.8187,-2.8189,-2.819,-2.8191,0,-3.0591,-3.0455,-3.0236,-3.002,-2.9961,-2.9837,-2.9647,-2.9523,-2.9409,-2.9219,-2.9167,-2.8983,-2.8785,-2.8636,-2.8378,-2.8305,-2.8082,-2.8056,-2.8145,-2.8129,-2.8041,-2.8049,-2.7793,-2.7749,-2.791,-2.7909,-2.7908,0,-3.0506,-3.0384,-3.0155,-3.005,-2.9943,-2.9776,-2.9657,-2.952,-2.9398,-2.9177,-2.9077,-2.8874,-2.8703,-2.8389,-2.8228,-2.8028,-2.7992,-2.7916,-2.7961,-2.7995,-2.7981,-2.7987,-2.797,-2.7908,-2.7907,-2.7907,-2.7906,0,-3.0367,-3.0305,-3.0142,-2.9952,-2.9814,-2.9657,-2.9497,-2.9415,-2.9247,-2.9114,-2.8913,-2.8781,-2.8518,-2.8313,-2.8096,-2.7976,-2.7908,-2.7894,-2.786,-2.7889,-2.7942,-2.7904,-2.8121,-2.7899,-2.79,-2.79,-2.7901,-2.7901,-3.0286,-3.017,-2.999,-2.9808,-2.9674,-2.9526,-2.9397,-2.9267,-2.9098,-2.8876,-2.8804,-2.8593,-2.8404,-2.8108,-2.7985,-2.7812,-2.7811,-2.7765,-2.7751,-2.774,-2.7738,-2.7976,-2.7773,-2.7773,-2.7773,-2.7773,-2.7773,0,-3.0135,-3.0015,-2.985,-2.963,-2.9485,-2.9443,-2.9262,-2.9141,-2.8959,-2.8792,-2.8626,-2.8389,-2.8189,-2.8013,-2.7803,-2.7698,-2.7662,-2.7647,-2.7649,-2.7621,-2.7755,-2.7802,-2.768,-2.768,-2.768,-2.768,-2.768,-2.768,-3.004,-2.984,-2.9756,-2.9485,-2.9363,-2.916,-2.9059,-2.8919,-2.8784,-2.8527,-2.8362,-2.825,-2.8075,-2.7852,-2.7663,-2.7615,-2.7538,-2.753,-2.7474,-2.7601,-2.7612,-2.7623,-2.7666,-2.7517,-2.7517,-2.7352,-2.7351,-2.735]}]]